Location: Newark
(44.3248°N, 23.7839°E)
Time: 21:39:59
(UTC+00:00)

N. Korean satellite - Visible Passes

Search period start: 21 January 2022 00:00
Search period end: 31 January 2022 00:00
Orbit: 447 x 491 km, 97.3° (Epoch: 21 January)

Date Brightness Start Highest point End Pass type
(mag) Time Alt. Az. Time Alt. Az. Time Alt. Az.
21 Jan 8.2 03:33:15 10° NNE 03:42:31 - S 03:35:05 28° NNE visible
21 Jan 8.7 05:09:03 10° NW 05:09:09 10° WNW 05:09:09 10° WNW visible
22 Jan 9.1 03:04:29 10° NE 03:06:00 19° NE 03:06:00 19° NE visible
22 Jan 8.0 04:37:53 10° NNW 04:40:04 20° NW 04:40:04 20° NW visible
23 Jan 9.9 02:36:35 10° ENE 02:36:56 11° ENE 02:36:56 11° ENE visible
23 Jan 7.1 04:08:11 10° N 04:10:58 39° NW 04:10:58 39° NW visible
24 Jan 7.0 03:38:55 10° NNE 03:41:54 56° NNE 03:41:54 56° NNE visible
24 Jan 9.7 15:48:30 10° SW 15:50:41 16° W 15:52:54 10° NW visible
25 Jan 8.4 03:10:01 10° NNE 03:12:49 30° E 03:12:49 30° E visible
25 Jan 8.0 04:43:42 10° NNW 04:46:14 18° WNW 04:46:53 17° W visible
26 Jan 9.6 02:41:48 10° NE 02:43:44 15° E 02:43:44 15° E visible
26 Jan 7.0 04:13:51 10° N 04:17:14 37° WNW 04:17:48 35° W visible
27 Jan 6.4 03:44:27 10° NNE 03:48:07 89° W 03:48:44 60° SSW visible
27 Jan 9.9 15:54:24 10° WSW 15:56:15 14° W 15:58:07 10° WNW visible
28 Jan 8.0 03:15:26 10° NNE 03:18:52 37° E 03:19:40 32° SE visible
28 Jan 8.2 04:49:25 10° NNW 04:51:42 16° WNW 04:53:44 11° WSW visible
29 Jan 9.4 02:47:00 10° NE 02:49:27 17° E 02:50:39 15° ESE visible
29 Jan 7.2 04:19:24 10° N 04:22:41 32° WNW 04:24:43 18° WSW visible
30 Jan 6.4 03:49:53 10° N 03:53:33 76° WNW 03:55:43 22° SSW visible
30 Jan 10.1 16:00:18 10° WSW 16:01:42 12° W 16:03:06 10° WNW visible
